Time,TemperatureF,DewpointF,PressureIn,WindDirection,WindDirectionDegrees,WindSpeedMPH,WindSpeedGustMPH,Humidity,HourlyPrecipIn,Conditions,Clouds,dailyrainin,SoftwareType,DateUTC
2013-12-27 00:01:00,25.1,16.4,30.27,West,265,8.0,9.0,69,0.00,,,0.00,Wunderground v.1.15,2013-12-27 05:01:00,
2013-12-27 00:03:00,25.1,16.4,30.28,SW,234,9.0,9.0,69,0.00,,,0.00,Wunderground v.1.15,2013-12-27 05:03:00,
2013-12-27 00:07:00,25.0,16.3,30.28,West,270,8.0,9.0,69,0.00,,,0.00,Wunderground v.1.15,2013-12-27 05:07:00,
2013-12-27 00:13:00,24.8,16.1,30.28,NW,314,7.0,9.0,69,0.00,,,0.00,Wunderground v.1.15,2013-12-27 05:13:00,
2013-12-27 00:15:00,24.7,16.0,30.28,SW,218,6.0,9.0,69,0.00,,,0.00,Wunderground v.1.15,2013-12-27 05:15:00,
2013-12-27 00:17:00,24.7,16.0,30.28,West,271,6.0,9.0,69,0.00,,,0.00,Wunderground v.1.15,2013-12-27 05:17:00,
2013-12-27 00:23:00,24.5,15.8,30.28,West,265,6.0,9.0,69,0.00,,,0.00,Wunderground v.1.15,2013-12-27 05:23:00,
2013-12-27 00:29:00,24.3,15.6,30.28,West,265,4.0,9.0,69,0.00,,,0.00,Wunderground v.1.15,2013-12-27 05:29:00,
2013-12-27 00:35:00,24.2,15.5,30.28,WSW,250,4.0,9.0,69,0.00,,,0.00,Wunderground v.1.15,2013-12-27 05:35:00,
2013-12-27 00:41:00,24.0,15.3,30.28,WSW,244,5.0,5.0,69,0.00,,,0.00,Wunderground v.1.15,2013-12-27 05:41:00,
2013-12-27 00:47:00,23.9,15.2,30.28,West,263,6.0,9.0,69,0.00,,,0.00,Wunderground v.1.15,2013-12-27 05:47:00,
2013-12-27 00:52:00,23.8,15.4,30.28,West,274,6.0,9.0,70,0.00,,,0.00,Wunderground v.1.15,2013-12-27 05:52:00,
2013-12-27 00:58:00,23.8,15.1,30.28,SW,234,6.0,9.0,69,0.00,,,0.00,Wunderground v.1.15,2013-12-27 05:58:00,
2013-12-27 01:04:00,23.8,15.1,30.28,SW,236,6.0,9.0,69,0.00,,,0.00,Wunderground v.1.15,2013-12-27 06:04:00,
2013-12-27 01:10:00,23.7,15.3,30.28,West,270,6.0,9.0,70,0.00,,,0.00,Wunderground v.1.15,2013-12-27 06:10:00,
2013-12-27 01:16:00,23.6,15.2,30.28,WSW,240,5.0,9.0,70,0.00,,,0.00,Wunderground v.1.15,2013-12-27 06:16:00,
2013-12-27 01:22:00,23.5,15.5,30.28,West,279,5.0,9.0,71,0.00,,,0.00,Wunderground v.1.15,2013-12-27 06:22:00,
2013-12-27 01:28:00,23.4,15.7,30.28,WSW,246,5.0,9.0,72,0.00,,,0.00,Wunderground v.1.15,2013-12-27 06:28:00,
2013-12-27 01:34:00,23.3,15.6,30.28,WSW,246,4.0,9.0,72,0.00,,,0.00,Wunderground v.1.15,2013-12-27 06:34:00,
2013-12-27 01:40:00,23.2,15.8,30.28,WSW,245,4.0,9.0,73,0.00,,,0.00,Wunderground v.1.15,2013-12-27 06:40:00,
2013-12-27 01:46:00,23.1,15.7,30.29,WSW,241,5.0,9.0,73,0.00,,,0.00,Wunderground v.1.15,2013-12-27 06:46:00,
2013-12-27 01:52:00,23.0,15.9,30.29,WSW,254,4.0,9.0,74,0.00,,,0.00,Wunderground v.1.15,2013-12-27 06:52:00,
2013-12-27 01:58:00,22.9,15.8,30.29,WSW,241,4.0,9.0,74,0.00,,,0.00,Wunderground v.1.15,2013-12-27 06:58:00,
2013-12-27 02:04:00,22.9,15.8,30.29,WSW,243,5.0,9.0,74,0.00,,,0.00,Wunderground v.1.15,2013-12-27 07:04:00,
2013-12-27 02:10:00,22.9,15.8,30.30,West,269,5.0,5.0,74,0.00,,,0.00,Wunderground v.1.15,2013-12-27 07:10:00,
2013-12-27 02:16:00,23.0,15.9,30.30,West,265,6.0,9.0,74,0.00,,,0.00,Wunderground v.1.15,2013-12-27 07:16:00,
2013-12-27 02:22:00,23.2,16.1,30.29,WSW,240,6.0,9.0,74,0.00,,,0.00,Wunderground v.1.15,2013-12-27 07:22:00,
2013-12-27 02:28:00,23.3,16.2,30.29,West,261,5.0,9.0,74,0.00,,,0.00,Wunderground v.1.15,2013-12-27 07:28:00,
2013-12-27 02:34:00,23.3,16.2,30.29,WSW,257,4.0,9.0,74,0.00,,,0.00,Wunderground v.1.15,2013-12-27 07:34:00,
2013-12-27 02:40:00,23.4,16.3,30.29,West,266,4.0,4.0,74,0.00,,,0.00,Wunderground v.1.15,2013-12-27 07:40:00,
2013-12-27 02:46:00,23.5,16.1,30.29,WSW,240,4.0,9.0,73,0.00,,,0.00,Wunderground v.1.15,2013-12-27 07:46:00,
2013-12-27 02:52:00,23.6,16.5,30.30,WSW,247,4.0,9.0,74,0.00,,,0.00,Wunderground v.1.15,2013-12-27 07:52:00,
2013-12-27 02:58:00,23.6,16.5,30.30,SW,227,4.0,9.0,74,0.00,,,0.00,Wunderground v.1.15,2013-12-27 07:58:00,
2013-12-27 03:04:00,23.7,16.6,30.30,SW,232,3.0,9.0,74,0.00,,,0.00,Wunderground v.1.15,2013-12-27 08:04:00,
2013-12-27 03:10:00,23.7,16.3,30.29,WSW,247,4.0,9.0,73,0.00,,,0.00,Wunderground v.1.15,2013-12-27 08:10:00,
2013-12-27 03:16:00,23.8,16.7,30.30,WSW,242,4.0,9.0,74,0.00,,,0.00,Wunderground v.1.15,2013-12-27 08:16:00,
2013-12-27 03:22:00,23.8,16.7,30.29,WSW,254,4.0,9.0,74,0.00,,,0.00,Wunderground v.1.15,2013-12-27 08:22:00,
2013-12-27 03:28:00,23.9,16.8,30.29,WSW,252,4.0,9.0,74,0.00,,,0.00,Wunderground v.1.15,2013-12-27 08:28:00,
2013-12-27 03:34:00,23.9,16.8,30.29,WSW,246,4.0,9.0,74,0.00,,,0.00,Wunderground v.1.15,2013-12-27 08:34:00,
2013-12-27 03:40:00,24.0,16.9,30.29,SW,215,4.0,4.0,74,0.00,,,0.00,Wunderground v.1.15,2013-12-27 08:40:00,
2013-12-27 03:46:00,24.0,16.9,30.28,WSW,244,3.0,9.0,74,0.00,,,0.00,Wunderground v.1.15,2013-12-27 08:46:00,
2013-12-27 03:52:00,24.0,16.9,30.28,WSW,237,4.0,9.0,74,0.00,,,0.00,Wunderground v.1.15,2013-12-27 08:52:00,
2013-12-27 03:59:00,24.1,17.0,30.28,WSW,253,4.0,9.0,74,0.00,,,0.00,Wunderground v.1.15,2013-12-27 08:59:00,
2013-12-27 04:05:00,24.2,17.1,30.28,West,263,4.0,9.0,74,0.00,,,0.00,Wunderground v.1.15,2013-12-27 09:05:00,
2013-12-27 04:11:00,24.2,17.4,30.28,West,267,4.0,4.0,75,0.00,,,0.00,Wunderground v.1.15,2013-12-27 09:11:00,
2013-12-27 04:17:00,24.3,17.5,30.28,WSW,247,3.0,9.0,75,0.00,,,0.00,Wunderground v.1.15,2013-12-27 09:17:00,
2013-12-27 04:23:00,24.3,17.5,30.28,West,266,2.0,9.0,75,0.00,,,0.00,Wunderground v.1.15,2013-12-27 09:23:00,
2013-12-27 04:29:00,24.3,17.5,30.28,West,262,2.0,9.0,75,0.00,,,0.00,Wunderground v.1.15,2013-12-27 09:29:00,
2013-12-27 04:35:00,24.3,17.8,30.28,WSW,253,2.0,9.0,76,0.00,,,0.00,Wunderground v.1.15,2013-12-27 09:35:00,
2013-12-27 04:41:00,24.3,17.5,30.28,SW,226,2.0,9.0,75,0.00,,,0.00,Wunderground v.1.15,2013-12-27 09:41:00,
2013-12-27 04:47:00,24.3,17.8,30.28,SW,226,2.0,9.0,76,0.00,,,0.00,Wunderground v.1.15,2013-12-27 09:47:00,
2013-12-27 04:54:00,24.2,17.7,30.27,SW,226,1.0,9.0,76,0.00,,,0.00,Wunderground v.1.15,2013-12-27 09:54:00,
2013-12-27 05:00:00,24.2,17.7,30.27,SW,226,1.0,9.0,76,0.00,,,0.00,Wunderground v.1.15,2013-12-27 10:00:00,
2013-12-27 05:06:00,24.1,17.9,30.27,SSE,167,2.0,9.0,77,0.00,,,0.00,Wunderground v.1.15,2013-12-27 10:06:00,
2013-12-27 05:12:00,24.0,17.8,30.27,South,171,2.0,9.0,77,0.00,,,0.00,Wunderground v.1.15,2013-12-27 10:12:00,
2013-12-27 05:18:00,24.0,17.8,30.27,SSE,163,2.0,9.0,77,0.00,,,0.00,Wunderground v.1.15,2013-12-27 10:18:00,
2013-12-27 05:24:00,24.0,18.1,30.27,SSE,158,3.0,9.0,78,0.00,,,0.00,Wunderground v.1.15,2013-12-27 10:24:00,
2013-12-27 05:30:00,24.0,18.1,30.26,SSE,163,3.0,9.0,78,0.00,,,0.00,Wunderground v.1.15,2013-12-27 10:30:00,
2013-12-27 05:36:00,24.0,18.4,30.26,South,173,3.0,9.0,79,0.00,,,0.00,Wunderground v.1.15,2013-12-27 10:36:00,
2013-12-27 05:42:00,24.0,18.4,30.26,SSE,153,2.0,9.0,79,0.00,,,0.00,Wunderground v.1.15,2013-12-27 10:42:00,
2013-12-27 05:48:00,24.0,18.4,30.26,SSE,168,3.0,9.0,79,0.00,,,0.00,Wunderground v.1.15,2013-12-27 10:48:00,
2013-12-27 05:54:00,24.1,18.8,30.26,South,169,3.0,9.0,80,0.00,,,0.00,Wunderground v.1.15,2013-12-27 10:54:00,
2013-12-27 06:00:00,24.2,18.9,30.26,SSE,161,3.0,3.0,80,0.00,,,0.00,Wunderground v.1.15,2013-12-27 11:00:00,
2013-12-27 06:06:00,24.2,18.9,30.26,SSE,156,3.0,4.0,80,0.00,,,0.00,Wunderground v.1.15,2013-12-27 11:06:00,
2013-12-27 06:12:00,24.3,19.0,30.26,SSE,150,3.0,5.0,80,0.00,,,0.00,Wunderground v.1.15,2013-12-27 11:12:00,
2013-12-27 06:18:00,24.4,19.4,30.25,SSE,166,4.0,6.0,81,0.00,,,0.00,Wunderground v.1.15,2013-12-27 11:18:00,
2013-12-27 06:24:00,24.4,19.7,30.25,SSE,165,5.0,5.0,82,0.00,,,0.00,Wunderground v.1.15,2013-12-27 11:24:00,
2013-12-27 06:30:00,24.5,19.8,30.25,SSE,149,4.0,5.0,82,0.00,,,0.00,Wunderground v.1.15,2013-12-27 11:30:00,
2013-12-27 06:36:00,24.6,19.9,30.25,SSE,155,4.0,6.0,82,0.00,,,0.00,Wunderground v.1.15,2013-12-27 11:36:00,
2013-12-27 06:42:00,24.7,20.0,30.25,SSE,168,5.0,5.0,82,0.00,,,0.00,Wunderground v.1.15,2013-12-27 11:42:00,
2013-12-27 06:48:00,24.8,20.1,30.25,SSE,161,5.0,8.0,82,0.00,,,0.00,Wunderground v.1.15,2013-12-27 11:48:00,
2013-12-27 06:54:00,24.8,20.4,30.25,SSE,153,5.0,6.0,83,0.00,,,0.00,Wunderground v.1.15,2013-12-27 11:54:00,
2013-12-27 07:00:00,24.9,20.5,30.25,SSE,157,4.0,4.0,83,0.00,,,0.00,Wunderground v.1.15,2013-12-27 12:00:00,
2013-12-27 07:06:00,25.1,20.7,30.25,SSE,156,3.0,5.0,83,0.00,,,0.00,Wunderground v.1.15,2013-12-27 12:06:00,
2013-12-27 07:12:00,25.1,20.7,30.24,SSE,157,3.0,5.0,83,0.00,,,0.00,Wunderground v.1.15,2013-12-27 12:12:00,
2013-12-27 07:18:00,25.2,20.8,30.24,SSE,157,2.0,5.0,83,0.00,,,0.00,Wunderground v.1.15,2013-12-27 12:18:00,
2013-12-27 07:24:00,25.2,20.8,30.24,SSE,161,2.0,5.0,83,0.00,,,0.00,Wunderground v.1.15,2013-12-27 12:24:00,
2013-12-27 07:30:00,25.3,21.1,30.24,SSE,155,2.0,5.0,84,0.00,,,0.00,Wunderground v.1.15,2013-12-27 12:30:00,
2013-12-27 07:36:00,25.4,21.2,30.24,SSE,159,2.0,5.0,84,0.00,,,0.00,Wunderground v.1.15,2013-12-27 12:36:00,
2013-12-27 07:42:00,25.4,21.2,30.24,SSE,160,2.0,5.0,84,0.00,,,0.00,Wunderground v.1.15,2013-12-27 12:42:00,
2013-12-27 07:48:00,25.5,21.3,30.24,SSE,160,2.0,5.0,84,0.00,,,0.00,Wunderground v.1.15,2013-12-27 12:48:00,
2013-12-27 07:54:00,25.6,21.7,30.24,SSE,159,2.0,5.0,85,0.00,,,0.00,Wunderground v.1.15,2013-12-27 12:54:00,
2013-12-27 08:00:00,25.7,21.8,30.24,SSE,159,1.0,5.0,85,0.00,,,0.00,Wunderground v.1.15,2013-12-27 13:00:00,
2013-12-27 08:06:00,25.8,21.9,30.24,SSE,160,2.0,5.0,85,0.00,,,0.00,Wunderground v.1.15,2013-12-27 13:06:00,
2013-12-27 08:12:00,26.0,22.1,30.24,SSE,167,2.0,5.0,85,0.00,,,0.00,Wunderground v.1.15,2013-12-27 13:12:00,
2013-12-27 08:18:00,26.2,22.3,30.24,SSW,197,2.0,5.0,85,0.00,,,0.00,Wunderground v.1.15,2013-12-27 13:18:00,
2013-12-27 08:24:00,26.5,22.9,30.24,SW,218,3.0,5.0,86,0.00,,,0.00,Wunderground v.1.15,2013-12-27 13:24:00,
2013-12-27 08:30:00,26.9,23.3,30.24,SW,221,3.0,3.0,86,0.00,,,0.00,Wunderground v.1.15,2013-12-27 13:30:00,
2013-12-27 08:36:00,27.2,23.8,30.24,SW,214,3.0,5.0,87,0.00,,,0.00,Wunderground v.1.15,2013-12-27 13:36:00,
2013-12-27 08:42:00,27.5,24.1,30.25,SW,219,3.0,5.0,87,0.00,,,0.00,Wunderground v.1.15,2013-12-27 13:42:00,
2013-12-27 08:48:00,27.7,24.6,30.25,SSW,205,3.0,5.0,88,0.00,,,0.00,Wunderground v.1.15,2013-12-27 13:48:00,
2013-12-27 08:54:00,27.9,24.8,30.25,SSW,205,3.0,5.0,88,0.00,,,0.00,Wunderground v.1.15,2013-12-27 13:54:00,
2013-12-27 09:00:00,28.0,24.9,30.25,SSW,202,3.0,5.0,88,0.00,,,0.00,Wunderground v.1.15,2013-12-27 14:00:00,
2013-12-27 09:06:00,28.2,25.1,30.25,SSW,207,3.0,5.0,88,0.00,,,0.00,Wunderground v.1.15,2013-12-27 14:06:00,
2013-12-27 09:12:00,28.4,25.3,30.25,SSW,207,3.0,5.0,88,0.00,,,0.00,Wunderground v.1.15,2013-12-27 14:12:00,
2013-12-27 09:18:00,28.5,25.4,30.25,WSW,254,3.0,5.0,88,0.00,,,0.00,Wunderground v.1.15,2013-12-27 14:18:00,
2013-12-27 09:24:00,28.7,25.6,30.25,SW,219,3.0,5.0,88,0.00,,,0.00,Wunderground v.1.15,2013-12-27 14:24:00,
2013-12-27 09:30:00,28.8,25.4,30.25,South,187,3.0,6.0,87,0.00,,,0.00,Wunderground v.1.15,2013-12-27 14:30:00,
2013-12-27 09:36:00,29.0,25.6,30.25,WSW,249,3.0,6.0,87,0.00,,,0.00,Wunderground v.1.15,2013-12-27 14:36:00,
2013-12-27 09:42:00,29.1,25.4,30.25,SSW,211,4.0,5.0,86,0.00,,,0.00,Wunderground v.1.15,2013-12-27 14:42:00,
2013-12-27 09:48:00,29.4,25.4,30.25,WSW,248,3.0,5.0,85,0.00,,,0.00,Wunderground v.1.15,2013-12-27 14:48:00,
2013-12-27 09:54:00,29.6,25.6,30.25,WSW,244,3.0,5.0,85,0.00,,,0.00,Wunderground v.1.15,2013-12-27 14:54:00,
2013-12-27 10:00:00,29.8,25.6,30.26,SW,224,3.0,3.0,84,0.00,,,0.00,Wunderground v.1.15,2013-12-27 15:00:00,
2013-12-27 10:06:00,30.1,25.6,30.26,SW,226,4.0,5.0,83,0.00,,,0.00,Wunderground v.1.15,2013-12-27 15:06:00,
2013-12-27 10:12:00,30.3,25.5,30.26,WSW,244,5.0,5.0,82,0.00,,,0.00,Wunderground v.1.15,2013-12-27 15:12:00,
2013-12-27 10:18:00,30.4,25.6,30.26,SSW,210,4.0,5.0,82,0.00,,,0.00,Wunderground v.1.15,2013-12-27 15:18:00,
2013-12-27 10:24:00,30.5,25.4,30.26,WSW,248,4.0,7.0,81,0.00,,,0.00,Wunderground v.1.15,2013-12-27 15:24:00,
2013-12-27 10:30:00,30.6,25.5,30.26,SW,221,4.0,4.0,81,0.00,,,0.00,Wunderground v.1.15,2013-12-27 15:30:00,
2013-12-27 10:36:00,30.7,25.3,30.26,WSW,254,3.0,5.0,80,0.00,,,0.00,Wunderground v.1.15,2013-12-27 15:36:00,
2013-12-27 10:42:00,30.8,25.4,30.26,SW,230,4.0,5.0,80,0.00,,,0.00,Wunderground v.1.15,2013-12-27 15:42:00,
2013-12-27 10:48:00,30.9,25.8,30.26,WSW,242,4.0,5.0,81,0.00,,,0.00,Wunderground v.1.15,2013-12-27 15:48:00,
2013-12-27 10:54:00,31.0,25.6,30.25,WSW,242,4.0,5.0,80,0.00,,,0.00,Wunderground v.1.15,2013-12-27 15:54:00,
2013-12-27 11:00:00,31.2,25.7,30.25,WSW,239,5.0,5.0,80,0.00,,,0.00,Wunderground v.1.15,2013-12-27 16:00:00,
2013-12-27 11:06:00,31.3,25.8,30.25,SSW,206,4.0,6.0,80,0.00,,,0.00,Wunderground v.1.15,2013-12-27 16:06:00,
2013-12-27 11:12:00,31.3,25.8,30.25,WSW,248,4.0,5.0,80,0.00,,,0.00,Wunderground v.1.15,2013-12-27 16:12:00,
2013-12-27 11:18:00,31.4,26.2,30.25,SSW,201,4.0,5.0,81,0.00,,,0.00,Wunderground v.1.15,2013-12-27 16:18:00,
2013-12-27 11:24:00,31.4,26.2,30.25,West,273,4.0,5.0,81,0.00,,,0.00,Wunderground v.1.15,2013-12-27 16:24:00,
2013-12-27 11:30:00,31.5,26.6,30.25,SSW,207,4.0,5.0,82,0.00,,,0.00,Wunderground v.1.15,2013-12-27 16:30:00,
2013-12-27 11:36:00,31.4,26.5,30.25,SW,222,4.0,7.0,82,0.00,,,0.00,Wunderground v.1.15,2013-12-27 16:36:00,
2013-12-27 11:42:00,31.5,26.6,30.25,SSW,192,4.0,5.0,82,0.00,,,0.00,Wunderground v.1.15,2013-12-27 16:42:00,
2013-12-27 11:48:00,31.5,26.6,30.25,WSW,242,4.0,7.0,82,0.00,,,0.00,Wunderground v.1.15,2013-12-27 16:48:00,
2013-12-27 11:54:00,31.4,26.5,30.25,SW,227,5.0,6.0,82,0.00,,,0.00,Wunderground v.1.15,2013-12-27 16:54:00,
2013-12-27 12:00:00,31.4,26.8,30.25,WSW,241,4.0,5.0,83,0.00,,,0.00,Wunderground v.1.15,2013-12-27 17:00:00,
2013-12-27 12:06:00,31.4,26.8,30.24,West,260,4.0,6.0,83,0.00,,,0.00,Wunderground v.1.15,2013-12-27 17:06:00,
2013-12-27 12:12:00,31.4,26.8,30.24,SW,235,4.0,5.0,83,0.00,,,0.00,Wunderground v.1.15,2013-12-27 17:12:00,
2013-12-27 12:18:00,31.4,27.1,30.24,SW,229,4.0,6.0,84,0.00,,,0.00,Wunderground v.1.15,2013-12-27 17:18:00,
2013-12-27 12:24:00,31.5,27.2,30.24,SW,229,4.0,5.0,84,0.00,,,0.00,Wunderground v.1.15,2013-12-27 17:24:00,
2013-12-27 12:30:00,31.5,27.2,30.24,SSW,204,3.0,5.0,84,0.00,,,0.00,Wunderground v.1.15,2013-12-27 17:30:00,
2013-12-27 12:36:00,31.5,27.2,30.24,SW,230,3.0,5.0,84,0.00,,,0.00,Wunderground v.1.15,2013-12-27 17:36:00,
2013-12-27 12:42:00,31.6,27.3,30.24,WSW,238,4.0,5.0,84,0.00,,,0.00,Wunderground v.1.15,2013-12-27 17:42:00,
2013-12-27 12:48:00,31.7,27.4,30.23,SW,227,4.0,5.0,84,0.00,,,0.00,Wunderground v.1.15,2013-12-27 17:48:00,
2013-12-27 12:54:00,31.8,27.5,30.23,WSW,256,4.0,5.0,84,0.00,,,0.00,Wunderground v.1.15,2013-12-27 17:54:00,
2013-12-27 13:00:00,31.9,27.6,30.23,West,279,4.0,6.0,84,0.00,,,0.00,Wunderground v.1.15,2013-12-27 18:00:00,
2013-12-27 13:06:00,32.0,27.7,30.23,WSW,249,4.0,7.0,84,0.00,,,0.00,Wunderground v.1.15,2013-12-27 18:06:00,
2013-12-27 13:12:00,32.0,27.7,30.23,West,261,5.0,6.0,84,0.00,,,0.00,Wunderground v.1.15,2013-12-27 18:12:00,
2013-12-27 13:18:00,32.0,27.7,30.23,SW,223,4.0,6.0,84,0.00,,,0.00,Wunderground v.1.15,2013-12-27 18:18:00,
2013-12-27 13:24:00,31.9,27.6,30.23,WSW,257,4.0,5.0,84,0.00,,,0.00,Wunderground v.1.15,2013-12-27 18:24:00,
2013-12-27 13:30:00,32.0,27.7,30.23,West,261,3.0,5.0,84,0.00,,,0.00,Wunderground v.1.15,2013-12-27 18:30:00,
2013-12-27 13:36:00,32.1,27.8,30.23,WSW,243,3.0,5.0,84,0.00,,,0.00,Wunderground v.1.15,2013-12-27 18:36:00,
2013-12-27 13:42:00,32.1,27.8,30.23,West,264,4.0,5.0,84,0.00,,,0.00,Wunderground v.1.15,2013-12-27 18:42:00,
2013-12-27 13:48:00,32.1,28.1,30.23,SW,231,4.0,5.0,85,0.00,,,0.00,Wunderground v.1.15,2013-12-27 18:48:00,
2013-12-27 13:54:00,32.2,28.2,30.23,WSW,246,3.0,5.0,85,0.00,,,0.00,Wunderground v.1.15,2013-12-27 18:54:00,
2013-12-27 14:00:00,32.3,28.0,30.23,WSW,244,3.0,5.0,84,0.00,,,0.00,Wunderground v.1.15,2013-12-27 19:00:00,
2013-12-27 14:06:00,32.5,28.2,30.22,WSW,241,3.0,5.0,84,0.00,,,0.00,Wunderground v.1.15,2013-12-27 19:06:00,
2013-12-27 14:12:00,32.6,28.0,30.22,WSW,254,3.0,5.0,83,0.00,,,0.00,Wunderground v.1.15,2013-12-27 19:12:00,
2013-12-27 14:18:00,32.8,27.9,30.23,WSW,238,3.0,7.0,82,0.00,,,0.00,Wunderground v.1.15,2013-12-27 19:18:00,
2013-12-27 14:24:00,32.9,28.0,30.23,West,281,4.0,5.0,82,0.00,,,0.00,Wunderground v.1.15,2013-12-27 19:24:00,
2013-12-27 14:30:00,32.9,27.7,30.23,WNW,285,4.0,5.0,81,0.00,,,0.00,Wunderground v.1.15,2013-12-27 19:30:00,
2013-12-27 14:36:00,32.9,27.7,30.22,SW,236,5.0,6.0,81,0.00,,,0.00,Wunderground v.1.15,2013-12-27 19:36:00,
2013-12-27 14:42:00,32.9,27.7,30.23,SW,236,5.0,5.0,81,0.00,,,0.00,Wunderground v.1.15,2013-12-27 19:42:00,
2013-12-27 14:48:00,32.9,27.7,30.23,WSW,244,4.0,5.0,81,0.00,,,0.00,Wunderground v.1.15,2013-12-27 19:48:00,
2013-12-27 14:54:00,32.9,27.7,30.23,WNW,289,4.0,5.0,81,0.00,,,0.00,Wunderground v.1.15,2013-12-27 19:54:00,
2013-12-27 15:00:00,33.0,27.8,30.23,WSW,251,4.0,4.0,81,0.00,,,0.00,Wunderground v.1.15,2013-12-27 20:00:00,
2013-12-27 15:06:00,33.0,27.8,30.23,SW,226,3.0,7.0,81,0.00,,,0.00,Wunderground v.1.15,2013-12-27 20:06:00,
2013-12-27 15:12:00,33.1,27.9,30.24,WNW,293,3.0,6.0,81,0.00,,,0.00,Wunderground v.1.15,2013-12-27 20:12:00,
2013-12-27 15:18:00,33.1,27.9,30.24,West,267,3.0,6.0,81,0.00,,,0.00,Wunderground v.1.15,2013-12-27 20:18:00,
2013-12-27 15:24:00,33.1,27.6,30.24,WSW,251,3.0,5.0,80,0.00,,,0.00,Wunderground v.1.15,2013-12-27 20:24:00,
2013-12-27 15:30:00,33.0,27.8,30.24,WSW,254,3.0,5.0,81,0.00,,,0.00,Wunderground v.1.15,2013-12-27 20:30:00,
2013-12-27 15:36:00,33.0,27.5,30.24,West,271,3.0,5.0,80,0.00,,,0.00,Wunderground v.1.15,2013-12-27 20:36:00,
2013-12-27 15:42:00,33.0,27.5,30.24,WSW,249,4.0,4.0,80,0.00,,,0.00,Wunderground v.1.15,2013-12-27 20:42:00,
2013-12-27 15:48:00,33.0,27.5,30.24,West,263,3.0,5.0,80,0.00,,,0.00,Wunderground v.1.15,2013-12-27 20:48:00,
2013-12-27 15:54:00,32.9,27.4,30.24,NW,316,2.0,6.0,80,0.00,,,0.00,Wunderground v.1.15,2013-12-27 20:54:00,
2013-12-27 16:00:00,32.8,27.3,30.24,West,259,3.0,5.0,80,0.00,,,0.00,Wunderground v.1.15,2013-12-27 21:00:00,
2013-12-27 16:06:00,32.8,27.3,30.24,West,267,3.0,5.0,80,0.00,,,0.00,Wunderground v.1.15,2013-12-27 21:06:00,
2013-12-27 16:12:00,32.7,27.2,30.24,WSW,247,2.0,5.0,80,0.00,,,0.00,Wunderground v.1.15,2013-12-27 21:12:00,
2013-12-27 16:18:00,32.7,27.2,30.24,WSW,248,2.0,5.0,80,0.00,,,0.00,Wunderground v.1.15,2013-12-27 21:18:00,
2013-12-27 16:24:00,32.6,27.1,30.25,WSW,248,2.0,5.0,80,0.00,,,0.00,Wunderground v.1.15,2013-12-27 21:24:00,
2013-12-27 16:30:00,32.5,27.0,30.25,West,259,3.0,3.0,80,0.00,,,0.00,Wunderground v.1.15,2013-12-27 21:30:00,
2013-12-27 16:36:00,32.5,27.0,30.25,West,263,3.0,5.0,80,0.00,,,0.00,Wunderground v.1.15,2013-12-27 21:36:00,
2013-12-27 16:42:00,32.4,26.9,30.25,SW,233,3.0,5.0,80,0.00,,,0.00,Wunderground v.1.15,2013-12-27 21:42:00,
2013-12-27 16:48:00,32.4,26.6,30.25,West,271,4.0,6.0,79,0.00,,,0.00,Wunderground v.1.15,2013-12-27 21:48:00,
2013-12-27 16:54:00,32.4,26.6,30.25,WSW,244,4.0,5.0,79,0.00,,,0.00,Wunderground v.1.15,2013-12-27 21:54:00,
2013-12-27 17:00:00,32.4,26.6,30.25,WSW,251,3.0,5.0,79,0.00,,,0.00,Wunderground v.1.15,2013-12-27 22:00:00,
2013-12-27 17:06:00,32.3,26.5,30.26,West,259,4.0,6.0,79,0.00,,,0.00,Wunderground v.1.15,2013-12-27 22:06:00,
2013-12-27 17:12:00,32.3,26.5,30.25,NNW,344,4.0,5.0,79,0.00,,,0.00,Wunderground v.1.15,2013-12-27 22:12:00,
2013-12-27 17:18:00,32.1,26.3,30.25,WSW,241,3.0,5.0,79,0.00,,,0.00,Wunderground v.1.15,2013-12-27 22:18:00,
2013-12-27 17:24:00,32.1,26.0,30.26,WSW,238,4.0,7.0,78,0.00,,,0.00,Wunderground v.1.15,2013-12-27 22:24:00,
2013-12-27 17:30:00,32.0,25.9,30.26,West,270,4.0,5.0,78,0.00,,,0.00,Wunderground v.1.15,2013-12-27 22:30:00,
2013-12-27 17:36:00,32.0,25.9,30.26,NNW,341,4.0,5.0,78,0.00,,,0.00,Wunderground v.1.15,2013-12-27 22:36:00,
2013-12-27 17:42:00,31.9,25.8,30.25,West,278,4.0,5.0,78,0.00,,,0.00,Wunderground v.1.15,2013-12-27 22:42:00,
2013-12-27 17:48:00,31.8,25.7,30.25,West,277,3.0,5.0,78,0.00,,,0.00,Wunderground v.1.15,2013-12-27 22:48:00,
2013-12-27 17:54:00,31.8,25.7,30.25,WNW,290,3.0,5.0,78,0.00,,,0.00,Wunderground v.1.15,2013-12-27 22:54:00,
2013-12-27 18:00:00,31.7,25.9,30.25,West,263,2.0,2.0,79,0.00,,,0.00,Wunderground v.1.15,2013-12-27 23:00:00,
2013-12-27 18:06:00,31.7,25.9,30.25,WSW,250,2.0,5.0,79,0.00,,,0.00,Wunderground v.1.15,2013-12-27 23:06:00,
2013-12-27 18:12:00,31.6,25.8,30.25,West,269,2.0,5.0,79,0.00,,,0.00,Wunderground v.1.15,2013-12-27 23:12:00,
2013-12-27 18:18:00,31.6,26.1,30.25,West,263,2.0,5.0,80,0.00,,,0.00,Wunderground v.1.15,2013-12-27 23:18:00,
2013-12-27 18:24:00,31.5,26.0,30.25,West,270,2.0,5.0,80,0.00,,,0.00,Wunderground v.1.15,2013-12-27 23:24:00,
2013-12-27 18:30:00,31.5,26.0,30.25,West,261,1.0,5.0,80,0.00,,,0.00,Wunderground v.1.15,2013-12-27 23:30:00,
2013-12-27 18:36:00,31.4,25.9,30.25,West,261,1.0,5.0,80,0.00,,,0.00,Wunderground v.1.15,2013-12-27 23:36:00,
2013-12-27 18:42:00,31.2,25.7,30.25,WSW,257,1.0,5.0,80,0.00,,,0.00,Wunderground v.1.15,2013-12-27 23:42:00,
2013-12-27 18:48:00,31.1,25.7,30.25,WSW,257,1.0,5.0,80,0.00,,,0.00,Wunderground v.1.15,2013-12-27 23:48:00,
2013-12-27 18:54:00,31.0,25.6,30.25,WSW,257,1.0,5.0,80,0.00,,,0.00,Wunderground v.1.15,2013-12-27 23:54:00,
2013-12-27 19:00:00,30.7,24.7,30.26,WSW,257,1.0,5.0,78,0.00,,,0.00,Wunderground v.1.15,2013-12-28 00:00:00,
2013-12-27 19:06:00,30.4,24.7,30.26,WSW,257,1.0,5.0,79,0.00,,,0.00,Wunderground v.1.15,2013-12-28 00:06:00,
2013-12-27 19:12:00,30.0,24.6,30.26,WSW,257,1.0,5.0,80,0.00,,,0.00,Wunderground v.1.15,2013-12-28 00:12:00,
2013-12-27 19:18:00,29.6,24.5,30.26,WSW,257,1.0,5.0,81,0.00,,,0.00,Wunderground v.1.15,2013-12-28 00:18:00,
2013-12-27 19:24:00,29.3,24.2,30.26,WSW,257,1.0,5.0,81,0.00,,,0.00,Wunderground v.1.15,2013-12-28 00:24:00,
2013-12-27 19:30:00,29.1,24.3,30.26,WSW,257,1.0,5.0,82,0.00,,,0.00,Wunderground v.1.15,2013-12-28 00:30:00,
2013-12-27 19:36:00,28.9,24.4,30.25,WSW,257,1.0,5.0,83,0.00,,,0.00,Wunderground v.1.15,2013-12-28 00:36:00,
2013-12-27 19:42:00,28.7,24.2,30.25,WSW,257,1.0,2.0,83,0.00,,,0.00,Wunderground v.1.15,2013-12-28 00:42:00,
2013-12-27 19:48:00,28.4,24.2,30.24,SSE,163,2.0,5.0,84,0.00,,,0.00,Wunderground v.1.15,2013-12-28 00:48:00,
2013-12-27 19:54:00,28.3,24.4,30.24,SSE,157,3.0,5.0,85,0.00,,,0.00,Wunderground v.1.15,2013-12-28 00:54:00,
2013-12-27 20:00:00,28.2,24.6,30.24,SSE,161,2.0,5.0,86,0.00,,,0.00,Wunderground v.1.15,2013-12-28 01:00:00,
2013-12-27 20:06:00,28.3,24.6,30.24,SSE,161,2.0,5.0,86,0.00,,,0.00,Wunderground v.1.15,2013-12-28 01:06:00,
2013-12-27 20:12:00,28.4,24.7,30.23,SSE,161,2.0,5.0,86,0.00,,,0.00,Wunderground v.1.15,2013-12-28 01:12:00,
2013-12-27 20:18:00,28.5,24.8,30.23,SSE,161,2.0,5.0,86,0.00,,,0.00,Wunderground v.1.15,2013-12-28 01:18:00,
2013-12-27 20:24:00,28.5,25.1,30.23,SSE,161,3.0,5.0,87,0.00,,,0.00,Wunderground v.1.15,2013-12-28 01:24:00,
2013-12-27 20:30:00,28.6,24.9,30.23,SSE,161,2.0,2.0,86,0.00,,,0.00,Wunderground v.1.15,2013-12-28 01:30:00,
2013-12-27 20:36:00,28.6,24.9,30.23,SSE,161,1.0,5.0,86,0.00,,,0.00,Wunderground v.1.15,2013-12-28 01:36:00,
2013-12-27 20:42:00,28.5,24.8,30.22,SSE,161,2.0,5.0,86,0.00,,,0.00,Wunderground v.1.15,2013-12-28 01:42:00,
2013-12-27 20:48:00,28.3,24.4,30.22,SSE,161,2.0,5.0,85,0.00,,,0.00,Wunderground v.1.15,2013-12-28 01:48:00,
2013-12-27 20:54:00,28.1,24.5,30.22,SSE,161,3.0,5.0,86,0.00,,,0.00,Wunderground v.1.15,2013-12-28 01:54:00,
2013-12-27 21:00:00,27.9,24.3,30.21,SSE,162,4.0,5.0,86,0.00,,,0.00,Wunderground v.1.15,2013-12-28 02:00:00,
2013-12-27 21:06:00,27.6,24.0,30.21,SSE,157,4.0,5.0,86,0.00,,,0.00,Wunderground v.1.15,2013-12-28 02:06:00,
2013-12-27 21:12:00,27.6,24.2,30.20,SSE,157,4.0,5.0,87,0.00,,,0.00,Wunderground v.1.15,2013-12-28 02:12:00,
2013-12-27 21:18:00,27.8,24.7,30.20,SSE,157,4.0,5.0,88,0.00,,,0.00,Wunderground v.1.15,2013-12-28 02:18:00,
2013-12-27 21:24:00,27.8,24.7,30.20,South,180,2.0,5.0,88,0.00,,,0.00,Wunderground v.1.15,2013-12-28 02:24:00,
2013-12-27 21:30:00,27.9,24.8,30.20,South,175,2.0,2.0,88,0.00,,,0.00,Wunderground v.1.15,2013-12-28 02:30:00,
2013-12-27 21:36:00,27.9,24.8,30.19,South,175,1.0,5.0,88,0.00,,,0.00,Wunderground v.1.15,2013-12-28 02:36:00,
2013-12-27 21:42:00,27.9,24.5,30.19,South,175,1.0,5.0,87,0.00,,,0.00,Wunderground v.1.15,2013-12-28 02:42:00,
2013-12-27 21:48:00,27.6,24.2,30.19,South,175,2.0,5.0,87,0.00,,,0.00,Wunderground v.1.15,2013-12-28 02:48:00,
2013-12-27 21:54:00,27.3,23.9,30.19,SSE,167,2.0,5.0,87,0.00,,,0.00,Wunderground v.1.15,2013-12-28 02:54:00,
2013-12-27 22:00:00,27.2,24.1,30.19,SSE,161,3.0,3.0,88,0.00,,,0.00,Wunderground v.1.15,2013-12-28 03:00:00,
2013-12-27 22:06:00,27.2,24.1,30.18,SSE,158,3.0,5.0,88,0.00,,,0.00,Wunderground v.1.15,2013-12-28 03:06:00,
2013-12-27 22:12:00,27.2,24.4,30.18,SSE,157,2.0,5.0,89,0.00,,,0.00,Wunderground v.1.15,2013-12-28 03:12:00,
2013-12-27 22:18:00,27.2,24.4,30.17,SSE,157,2.0,5.0,89,0.00,,,0.00,Wunderground v.1.15,2013-12-28 03:18:00,
2013-12-27 22:24:00,27.2,24.4,30.17,South,175,2.0,5.0,89,0.00,,,0.00,Wunderground v.1.15,2013-12-28 03:24:00,
2013-12-27 22:30:00,27.1,24.3,30.16,South,175,2.0,5.0,89,0.00,,,0.00,Wunderground v.1.15,2013-12-28 03:30:00,
2013-12-27 22:36:00,27.1,24.3,30.16,South,181,2.0,5.0,89,0.00,,,0.00,Wunderground v.1.15,2013-12-28 03:36:00,
2013-12-27 22:42:00,27.2,24.7,30.16,South,180,2.0,3.0,90,0.00,,,0.00,Wunderground v.1.15,2013-12-28 03:42:00,
2013-12-27 22:48:00,27.2,24.7,30.16,South,184,2.0,5.0,90,0.00,,,0.00,Wunderground v.1.15,2013-12-28 03:48:00,
2013-12-27 22:54:00,27.4,24.9,30.15,SSE,164,2.0,5.0,90,0.00,,,0.00,Wunderground v.1.15,2013-12-28 03:54:00,
2013-12-27 23:00:00,27.5,25.0,30.15,South,171,2.0,5.0,90,0.00,,,0.00,Wunderground v.1.15,2013-12-28 04:00:00,
2013-12-27 23:06:00,27.7,25.2,30.15,South,171,2.0,5.0,90,0.00,,,0.00,Wunderground v.1.15,2013-12-28 04:06:00,
2013-12-27 23:12:00,27.8,25.0,30.14,South,171,2.0,5.0,89,0.00,,,0.00,Wunderground v.1.15,2013-12-28 04:12:00,
2013-12-27 23:18:00,27.8,24.7,30.14,SSE,161,2.0,5.0,88,0.00,,,0.00,Wunderground v.1.15,2013-12-28 04:18:00,
2013-12-27 23:24:00,27.7,24.6,30.13,SSE,161,2.0,5.0,88,0.00,,,0.00,Wunderground v.1.15,2013-12-28 04:24:00,
2013-12-27 23:30:00,27.5,24.4,30.12,SSE,160,2.0,5.0,88,0.00,,,0.00,Wunderground v.1.15,2013-12-28 04:30:00,
2013-12-27 23:36:00,27.4,24.3,30.12,SSE,160,3.0,5.0,88,0.00,,,0.00,Wunderground v.1.15,2013-12-28 04:36:00,
2013-12-27 23:42:00,27.2,24.4,30.11,SSE,156,4.0,5.0,89,0.00,,,0.00,Wunderground v.1.15,2013-12-28 04:42:00,
2013-12-27 23:48:00,27.4,24.9,30.11,SSE,157,3.0,5.0,90,0.00,,,0.00,Wunderground v.1.15,2013-12-28 04:48:00,
2013-12-27 23:54:00,27.5,24.7,30.11,SSE,156,2.0,5.0,89,0.00,,,0.00,Wunderground v.1.15,2013-12-28 04:54:00,